Home > Weather > Freiberg > Past weeks

Flag for Germany Weather for the Past 2 Weeks in Freiberg, Saxony, Germany

Now
54 °F

Clear.


Feels Like: 53 °F
Forecast: 50 / 67 °F
Wind: 5 mph from Southeast

Location: Dresden-Klotzsche

Current Time: May 7, 2016 at 3:23:54 AM

Latest Report: May 7, 2016 at 2:50 AM


Visibility: 10 mi

Pressure: 30.04 "Hg

Humidity: 63%

Dew Point: 41 °F

Location of FreibergLocation

Historic Weather in Freiberg — Graph

°F

Freiberg Temperature Yesterday

Maximum temperature yesterday: 72 °F (at 3:50 PM)
Minimum temperature yesterday: 45 °F (at 6:20 AM)
Average temperature yesterday: 60 °F

High & Low Weather Summary for the Past Weeks

 TemperatureHumidityPressure
High72 °F (May 6, 3:50 PM)100% (May 3, 4:20 AM)30.36 "Hg (May 3, 4:20 AM)
Low32 °F (Apr 24, 5:50 AM)25% (Apr 30, 2:20 PM)29.47 "Hg (Apr 26, 7:50 AM)
Average47 °F66%29.99 "Hg
* Reported Apr 22 2:20 AM — May 7 2:20 AM, Freiberg, Weather by CustomWeather, © 2016

Note: Actual official high and low records may vary slightly from our data, if they occured in-between our weather recording intervals... More about our weather records

Advertising

Freiberg Weather History for the Previous 24 Hours

Scroll right to see more
 ConditionsComfort  
Time TempWeatherWind HumidityBarometerVisibility
2:20 AM
Sat, May 7
52 °FClear.6 mph67%30.04 "Hg10 mi
1:50 AM54 °FClear.7 mph63%30.04 "Hg10 mi
1:20 AM55 °FClear.3 mph59%30.04 "Hg10 mi
12:50 AM55 °FClear.3 mph59%30.04 "Hg10 mi
12:20 AM55 °FPassing clouds.3 mph59%30.04 "HgN/A
11:50 PM
Fri, May 6
57 °FClear.5 mph55%30.04 "Hg10 mi
11:20 PM59 °FClear.7 mph48%30.04 "Hg10 mi
10:50 PM59 °FClear.6 mph48%30.04 "Hg10 mi
10:20 PM61 °FClear.7 mph48%30.04 "Hg10 mi
9:50 PM61 °FClear.9 mph48%30.04 "Hg10 mi
9:20 PM61 °FSunny.8 mph52%30.04 "Hg10 mi
8:50 PM63 °FSunny.9 mph49%30.04 "Hg10 mi
8:20 PM64 °FSunny.10 mph46%30.04 "Hg10 mi
7:50 PM66 °FSunny.13 mph43%30.04 "Hg10 mi
7:20 PM68 °FSunny.15 mph38%30.04 "Hg10 mi
6:50 PM70 °FSunny.15 mph35%30.04 "Hg10 mi
6:20 PM70 °FPassing clouds.10 mph33%30.04 "HgN/A
5:50 PM70 °FPassing clouds.9 mph33%30.04 "HgN/A
5:20 PM72 °FPassing clouds.9 mph33%30.04 "HgN/A
4:50 PM72 °FPassing clouds.12 mph33%30.04 "HgN/A
4:20 PM72 °FPassing clouds.7 mph31%30.07 "HgN/A
3:50 PM72 °FPassing clouds.12 mph33%30.07 "HgN/A
3:20 PM70 °FSunny.12 mph35%30.07 "Hg10 mi
2:50 PM70 °FPassing clouds.9 mph40%30.09 "HgN/A
2:20 PM70 °FPassing clouds.13 mph40%30.09 "HgN/A
1:50 PM70 °FPassing clouds.13 mph33%30.09 "HgN/A
1:20 PM70 °FPassing clouds.12 mph38%30.12 "HgN/A
12:50 PM68 °FPassing clouds.10 mph40%30.12 "HgN/A
12:20 PM68 °FPassing clouds.10 mph43%30.12 "HgN/A
11:50 AM66 °FPassing clouds.9 mph43%30.15 "HgN/A
11:20 AM66 °FPassing clouds.7 mph40%30.15 "HgN/A
10:50 AM66 °FPassing clouds.7 mph43%30.15 "HgN/A
10:20 AM64 °FPassing clouds.7 mph46%30.15 "HgN/A
9:50 AM63 °FPassing clouds.8 mph49%30.15 "HgN/A
9:20 AM63 °FPassing clouds.7 mph52%30.15 "HgN/A
8:50 AM59 °FPassing clouds.7 mph55%30.18 "HgN/A
8:20 AM57 °FSunny.6 mph59%30.18 "Hg10 mi
7:50 AM55 °FSunny.3 mph63%30.18 "Hg10 mi
7:20 AM50 °FSunny.7 mph82%30.18 "Hg10 mi
6:50 AM46 °FSunny.6 mph93%30.15 "Hg10 mi
6:20 AM45 °FClear.6 mph93%30.15 "Hg10 mi
5:50 AM48 °FClear.7 mph76%30.15 "Hg10 mi
5:20 AM48 °FClear.3 mph82%30.15 "Hg10 mi
4:50 AM50 °FClear.5 mph76%30.18 "Hg10 mi
4:20 AM50 °FClear.7 mph76%30.18 "Hg10 mi
3:50 AM50 °FClear.6 mph76%30.18 "Hg10 mi
3:20 AM50 °FClear.5 mph76%30.18 "Hg10 mi
Weather by CustomWeather, © 2016

See weather overviewHow to use our weather pages